KD8OSM Weather Reports


time (UTC)temp
C
wind
direction
speed
KPH
gust
KPH
rain 1hr
cm
rain 24hr
cm
rain mn
cm
humidity
%
barometer
mb
20260503193228 17 214 4.8 19.3 0.00 0.00 0.00 40 1010.5
20260503192241 17 294 6.4 20.9 0.00 0.00 0.00 39 1010.5
20260503191214 17 191 3.2 16.1 0.00 0.00 0.00 42 1010.6
20260503190217 17 253 9.7 20.9 0.00 0.00 0.00 39 1010.7
20260503185228 16 236 4.8 14.5 0.00 0.00 0.00 39 1010.8
20260503184220 17 323 8.0 22.5 0.00 0.00 0.00 40 1010.8
20260503183214 16 242 6.4 29.0 0.00 0.00 0.00 38 1011.3
20260503182246 16 313 8.0 22.5 0.00 0.00 0.00 40 1011.2
20260503181217 16 242 4.8 17.7 0.00 0.00 0.00 40 1011.4
20260503175215 16 260 6.4 25.7 0.00 0.00 0.00 43 1011.7
20260503174226 15 243 4.8 14.5 0.00 0.00 0.00 43 1011.9
20260503173237 15 239 3.2 17.7 0.00 0.00 0.00 45 1012.0
20260503172210 15 246 6.4 12.9 0.00 0.00 0.00 45 1012.2
20260503171222 15 255 4.8 12.9 0.00 0.00 0.00 44 1012.3
20260503170224 14 254 4.8 17.7 0.00 0.00 0.00 44 1012.5
20260503160213 13 290 1.6 19.3 0.00 0.00 0.00 45 1013.1
20260503150215 15 274 4.8 20.9 0.00 0.00 0.00 43 1013.3
20260503140222 12 250 4.8 14.5 0.00 0.00 0.00 50 1013.5
20260503131219 10 256 4.8 11.3 0.00 0.00 0.00 54 1013.7
20260503130224 9 259 3.2 14.5 0.00 0.00 0.00 55 1013.7
20260503110215 -17 0.0 0.0 0.00 0.00 0.00 1014.1
20260503100210 -17 0.0 0.0 0.00 0.00 0.00 1014.3
20260503090219 0 291 0.0 0.0 0.00 0.00 0.00 74 1014.7
20260503081218 2 291 0.0 1.6 0.00 0.00 0.00 67 1014.9
20260503080246 2 297 0.0 3.2 0.00 0.00 0.00 69 1015.0
20260503072212 0 284 0.0 0.0 0.00 0.00 0.00 77 1015.1
20260503071223 0 284 0.0 1.6 0.00 0.00 0.00 78 1015.1
20260503070227 0 284 0.0 0.0 0.00 0.00 0.00 79 1015.1
20260503060213 0 283 0.0 0.0 0.00 0.00 0.00 80 1015.6
20260503054236 0 284 0.0 0.0 0.00 0.00 0.00 79 1015.7
20260503053209 1 284 0.0 0.0 0.00 0.00 0.00 80 1015.8
20260503052221 1 284 0.0 0.0 0.00 0.00 0.00 78 1015.8
20260503051211 1 284 0.0 1.6 0.00 0.00 0.00 80 1015.9
20260503050215 0 283 0.0 0.0 0.00 0.00 0.00 79 1015.9
20260503045210 0 282 0.0 0.0 0.00 0.00 0.00 79 1015.9
20260503044220 0 283 0.0 0.0 0.00 0.00 0.00 79 1016.0
20260503043211 0 283 0.0 0.0 0.00 0.00 0.00 79 1016.0
20260503042222 1 283 0.0 0.0 0.00 0.00 0.00 79 1015.9
20260503041235 1 283 0.0 0.0 0.00 0.00 0.00 80 1016.0
20260503040218 1 282 0.0 0.0 0.00 0.00 0.00 79 1016.1
20260503035210 1 283 0.0 0.0 0.00 0.00 0.00 78 1016.2
20260503034241 1 283 0.0 0.0 0.00 0.00 0.00 78 1016.2
20260503033214 1 282 0.0 0.0 0.00 0.00 0.00 78 1016.2
20260503032226 1 282 0.0 0.0 0.00 0.00 0.00 78 1016.2
20260503031216 1 283 0.0 0.0 0.00 0.00 0.00 78 1016.3
20260503030241 1 283 0.0 0.0 0.00 0.00 0.00 78 1016.3
20260503025214 1 282 0.0 0.0 0.00 0.00 0.00 78 1016.3
20260503024225 1 282 0.0 0.0 0.00 0.00 0.00 78 1016.4
20260503023237 1 282 0.0 0.0 0.00 0.00 0.00 77 1016.5
20260503022227 1 282 0.0 0.0 0.00 0.00 0.00 76 1016.5
20260503021222 2 283 0.0 0.0 0.00 0.00 0.00 75 1016.6
20260503020225 2 283 0.0 0.0 0.00 0.00 0.00 75 1016.4
20260503015236 2 282 0.0 0.0 0.00 0.00 0.00 74 1016.4
20260503014246 2 283 0.0 0.0 0.00 0.00 0.00 72 1016.3
20260503013220 2 283 0.0 0.0 0.00 0.00 0.00 71 1016.3
20260503012211 3 282 0.0 0.0 0.00 0.00 0.00 69 1016.3
20260503011222 3 282 0.0 0.0 0.00 0.00 0.00 68 1016.3
20260503010224 3 283 0.0 0.0 0.00 0.00 0.00 65 1016.3
20260503005218 5 282 0.0 0.0 0.00 0.00 0.00 62 1016.2
20260503004248 5 283 0.0 0.0 0.00 0.00 0.00 60 1016.2
20260503003220 6 282 0.0 0.0 0.00 0.00 0.00 56 1016.2
20260503002212 7 282 0.0 0.0 0.00 0.00 0.00 53 1016.1
20260503001226 7 282 0.0 1.6 0.00 0.00 0.00 51 1016.0
20260503000211 7 285 0.0 3.2 0.00 0.00 0.00 48 1016.1
20260502235223 8 273 0.0 6.4 0.00 0.00 0.00 48 1016.1
20260502234212 8 283 3.2 8.0 0.00 0.00 0.00 47 1016.1
20260502233228 8 297 3.2 9.7 0.00 0.00 0.00 46 1016.1
20260502232219 8 319 1.6 9.7 0.00 0.00 0.00 47 1016.2
20260502231226 8 322 4.8 8.0 0.00 0.00 0.00 45 1016.2
20260502230211 8 242 1.6 9.7 0.00 0.00 0.00 46 1016.2
20260502225227 8 291 3.2 8.0 0.00 0.00 0.00 46 1016.2
20260502224239 8 274 3.2 9.7 0.00 0.00 0.00 47 1016.3
20260502223209 8 280 3.2 17.7 0.00 0.00 0.00 48 1016.3
20260502222241 8 300 3.2 11.3 0.00 0.00 0.00 47 1016.3
20260502221234 8 294 3.2 14.5 0.00 0.00 0.00 46 1016.3
20260502220218 8 300 3.2 8.0 0.00 0.00 0.00 46 1016.3
20260502215228 8 281 3.2 11.3 0.00 0.00 0.00 48 1016.3
20260502214220 8 340 4.8 14.5 0.00 0.00 0.00 47 1016.3
20260502213214 8 277 6.4 12.9 0.00 0.00 0.00 45 1016.3
20260502212226 9 276 3.2 9.7 0.00 0.00 0.00 47 1016.3
20260502211236 8 293 4.8 11.3 0.00 0.00 0.00 48 1016.4
20260502210219 8 276 3.2 12.9 0.00 0.00 0.00 46 1016.4
20260502205215 8 271 4.8 12.9 0.00 0.00 0.00 46 1016.5
20260502204246 8 290 4.8 12.9 0.00 0.00 0.00 46 1016.5
20260502203215 8 273 3.2 12.9 0.00 0.00 0.00 47 1016.6
20260502202227 8 311 1.6 9.7 0.00 0.00 0.00 48 1016.7
20260502201223 8 290 4.8 12.9 0.00 0.00 0.00 46 1016.8
20260502200227 8 326 6.4 12.9 0.00 0.00 0.00 46 1016.9
20260502195218 8 284 4.8 12.9 0.00 0.00 0.00 46 1016.9
20260502194212 8 322 3.2 11.3 0.00 0.00 0.00 45 1017.0